Time,TemperatureF,DewpointF,PressureIn,WindDirection,WindDirectionDegrees,WindSpeedMPH,WindSpeedGustMPH,Humidity,HourlyPrecipIn,Conditions,Clouds,dailyrainin,SoftwareType,DateUTC
2013-04-07 07:40:00,35.7,27.2,30.02,NW,308,1.0,7.0,71,0.00,,,-99.99,Wlink +4.0,2013-04-07 12:40:00,
2013-04-07 07:50:00,35.7,26.9,30.02,NW,313,0.0,7.0,70,0.00,,,-99.99,Wlink +4.0,2013-04-07 12:50:00,
2013-04-07 08:50:00,36.1,26.6,30.05,WNW,301,3.0,7.0,68,0.00,,,-99.99,Wlink +4.0,2013-04-07 13:50:00,
2013-04-07 09:00:00,36.1,26.6,30.05,NW,309,3.0,7.0,68,0.00,,,-99.99,Wlink +4.0,2013-04-07 14:00:00,
2013-04-07 09:10:00,36.0,26.5,30.05,WNW,289,5.0,7.0,68,0.00,,,-99.99,Wlink +4.0,2013-04-07 14:10:00,
2013-04-07 09:20:00,36.0,26.5,30.05,NW,309,2.0,7.0,68,0.00,,,-99.99,Wlink +4.0,2013-04-07 14:20:00,
2013-04-07 09:30:00,36.0,26.5,30.05,NW,310,2.0,7.0,68,0.00,,,-99.99,Wlink +4.0,2013-04-07 14:30:00,
2013-04-07 09:40:00,36.1,26.6,30.05,NW,316,2.0,7.0,68,0.00,,,-99.99,Wlink +4.0,2013-04-07 14:40:00,
2013-04-07 09:50:00,36.3,26.8,30.05,NW,326,1.0,7.0,68,0.00,,,-99.99,Wlink +4.0,2013-04-07 14:50:00,
2013-04-07 10:00:00,36.2,26.7,30.05,NW,319,1.0,7.0,68,0.00,,,-99.99,Wlink +4.0,2013-04-07 15:00:00,
2013-04-07 10:10:00,36.2,26.7,30.06,NW,313,0.0,7.0,68,0.00,,,-99.99,Wlink +4.0,2013-04-07 15:10:00,
2013-04-07 10:20:00,36.4,26.9,30.06,NW,313,0.0,6.0,68,0.00,,,-99.99,Wlink +4.0,2013-04-07 15:20:00,
2013-04-07 10:30:00,36.6,27.1,30.06,NW,323,0.0,6.0,68,0.00,,,-99.99,Wlink +4.0,2013-04-07 15:30:00,
2013-04-07 10:40:00,36.7,26.4,30.07,NW,323,0.0,6.0,66,0.00,,,-99.99,Wlink +4.0,2013-04-07 15:40:00,
2013-04-07 10:50:00,36.9,27.0,30.07,NW,307,2.0,6.0,67,0.00,,,-99.99,Wlink +4.0,2013-04-07 15:50:00,
2013-04-07 11:00:00,36.8,26.5,30.07,NW,304,0.0,6.0,66,0.00,,,-99.99,Wlink +4.0,2013-04-07 16:00:00,
2013-04-07 11:10:00,37.3,27.0,30.08,WNW,303,1.0,6.0,66,0.00,,,-99.99,Wlink +4.0,2013-04-07 16:10:00,
2013-04-07 12:30:00,38.8,26.9,30.08,West,274,2.0,9.0,62,0.00,,,-99.99,Wlink +4.0,2013-04-07 17:30:00,
2013-04-07 12:40:00,39.2,27.3,30.07,West,276,1.0,9.0,62,0.00,,,-99.99,Wlink +4.0,2013-04-07 17:40:00,
2013-04-07 12:50:00,40.1,28.1,30.07,NW,306,0.0,9.0,62,0.00,,,-99.99,Wlink +4.0,2013-04-07 17:50:00,
2013-04-07 13:00:00,41.4,29.0,30.06,SSW,194,0.0,9.0,61,0.00,,,-99.99,Wlink +4.0,2013-04-07 18:00:00,
2013-04-07 13:10:00,41.5,28.7,30.06,South,177,4.0,9.0,60,0.00,,,-99.99,Wlink +4.0,2013-04-07 18:10:00,
2013-04-07 13:20:00,42.5,28.8,30.06,SSE,160,3.0,9.0,58,0.00,,,-99.99,Wlink +4.0,2013-04-07 18:20:00,
2013-04-07 13:30:00,42.7,29.0,30.05,ESE,119,1.0,6.0,58,0.00,,,-99.99,Wlink +4.0,2013-04-07 18:30:00,
2013-04-07 13:40:00,42.8,29.1,30.05,SE,137,3.0,6.0,58,0.00,,,-99.99,Wlink +4.0,2013-04-07 18:40:00,
2013-04-07 13:50:00,43.9,29.7,30.05,ESE,115,5.0,6.0,57,0.00,,,-99.99,Wlink +4.0,2013-04-07 18:50:00,
2013-04-07 14:00:00,44.4,29.3,30.04,SSE,151,3.0,6.0,55,0.00,,,-99.99,Wlink +4.0,2013-04-07 19:00:00,
2013-04-07 14:10:00,45.0,29.4,30.04,SE,142,2.0,6.0,54,0.00,,,-99.99,Wlink +4.0,2013-04-07 19:10:00,
2013-04-07 14:20:00,44.8,29.2,30.04,South,182,0.0,7.0,54,0.00,,,-99.99,Wlink +4.0,2013-04-07 19:20:00,
2013-04-07 14:30:00,44.8,29.6,30.04,SSE,160,3.0,7.0,55,0.00,,,-99.99,Wlink +4.0,2013-04-07 19:30:00,
2013-04-07 14:40:00,45.6,29.9,30.03,SSE,167,3.0,7.0,54,0.00,,,-99.99,Wlink +4.0,2013-04-07 19:40:00,
2013-04-07 14:50:00,45.6,29.9,30.03,NE,46,3.0,10.0,54,0.00,,,-99.99,Wlink +4.0,2013-04-07 19:50:00,
2013-04-07 15:00:00,44.7,29.5,30.02,SE,139,6.0,11.0,55,0.00,,,-99.99,Wlink +4.0,2013-04-07 20:00:00,
2013-04-07 15:10:00,44.4,29.3,30.02,SSW,201,1.0,11.0,55,0.00,,,-99.99,Wlink +4.0,2013-04-07 20:10:00,
2013-04-07 15:20:00,45.0,30.3,30.02,South,176,3.0,11.0,56,0.00,,,-99.99,Wlink +4.0,2013-04-07 20:20:00,
2013-04-07 15:30:00,45.0,29.8,30.01,SSE,159,3.0,11.0,55,0.00,,,-99.99,Wlink +4.0,2013-04-07 20:30:00,
2013-04-07 15:40:00,44.8,29.6,30.00,South,188,2.0,11.0,55,0.00,,,-99.99,Wlink +4.0,2013-04-07 20:40:00,
2013-04-07 15:50:00,44.8,30.1,30.01,WSW,247,0.0,11.0,56,0.00,,,-99.99,Wlink +4.0,2013-04-07 20:50:00,
2013-04-07 16:00:00,45.4,30.6,30.00,SE,143,1.0,11.0,56,0.00,,,-99.99,Wlink +4.0,2013-04-07 21:00:00,
2013-04-07 16:10:00,45.6,30.4,30.00,SSW,204,0.0,9.0,55,0.00,,,-99.99,Wlink +4.0,2013-04-07 21:10:00,
2013-04-07 16:20:00,45.9,30.7,30.00,South,169,2.0,9.0,55,0.00,,,-99.99,Wlink +4.0,2013-04-07 21:20:00,
2013-04-07 16:30:00,45.8,30.6,30.00,SE,141,2.0,9.0,55,0.00,,,-99.99,Wlink +4.0,2013-04-07 21:30:00,
2013-04-07 16:40:00,45.9,30.7,30.00,South,172,2.0,9.0,55,0.00,,,-99.99,Wlink +4.0,2013-04-07 21:40:00,
2013-04-07 16:50:00,46.2,30.9,29.98,SE,145,4.0,9.0,55,0.00,,,-99.99,Wlink +4.0,2013-04-07 21:50:00,
2013-04-07 17:00:00,46.3,31.0,29.99,SSE,164,2.0,9.0,55,0.00,,,-99.99,Wlink +4.0,2013-04-07 22:00:00,
2013-04-07 17:10:00,46.7,31.4,29.99,South,182,3.0,9.0,55,0.00,,,-99.99,Wlink +4.0,2013-04-07 22:10:00,
2013-04-07 17:20:00,47.0,31.2,29.99,SSE,158,4.0,9.0,54,0.00,,,-99.99,Wlink +4.0,2013-04-07 22:20:00,
2013-04-07 17:30:00,47.2,31.4,29.99,SSE,155,2.0,11.0,54,0.00,,,-99.99,Wlink +4.0,2013-04-07 22:30:00,
2013-04-07 17:40:00,46.8,31.0,29.98,South,191,3.0,12.0,54,0.00,,,-99.99,Wlink +4.0,2013-04-07 22:40:00,
2013-04-07 17:50:00,46.7,31.4,29.98,SSE,149,0.0,12.0,55,0.00,,,-99.99,Wlink +4.0,2013-04-07 22:50:00,
2013-04-07 18:00:00,46.5,31.2,29.98,SSW,200,1.0,12.0,55,0.00,,,-99.99,Wlink +4.0,2013-04-07 23:00:00,